Location: Aragnouet
(42.7874°N, 0.2165°E)
Time: 02:41:25
(UTC+00:00)

NOSS 3-4 (A) - Pass Details

Date: 09 April 2020
Orbit: 895 x 1317 km, 63.4° (Epoch: 27 May)

Event Time Altitude Azimuth Distance (km) Brightness Sun altitude
Rises 19:25:25 0° 324° (NW) 3,839 7.7 -9.7°
Reaches altitude 10° 19:27:57 10° 325° (NW) 2,939 6.9 -10.2°
Maximum altitude 19:35:01 82° 53° (NE) 1,189 3.9 -11.4°
Enters shadow 19:42:34 11° 142° (SE) 3,135 5.6 -12.6°
